Terug naar catalogus

STARLINK-36517

ActiefCommunicatieVLEO
NORAD 67454·PAYLOAD·🇺🇸 United States

Gelanceerd Jan 14, 2026 vanaf Cape Canaveral Space Force Station

Loading…

Volgende Passages (komende 24 uur)

TLE

VersSource: CelesTrak SupGP

Epoch: Sep 14, 2026, 22:29 UTC

1 67454C 26008K   26257.93729167  .00012059  00000+0  43664-3 0  2577
2 67454  43.0029 216.7116 0001304 264.6037  48.9483 15.27581489    13

Volg STARLINK-36517 in realtime met AllMySat

Download on the App Store